Location: Ambatotampy
(18.8181°S, 47.6186°E)
Time: 22:55:42
(UTC+00:00)

Mugunghwa Rocket - Pass Details

Date: 21 January 2021
Orbit: 936 x 1372 km, 26.7° (Epoch: 24 February)

Event Time Altitude Azimuth Distance (km) Brightness Sun altitude
Exits shadow 00:38:18 44° 267° (W) 1,342 4.3 -24.1°
Maximum altitude 00:40:29 71° 197° (SSW) 1,069 4.2 -23.7°
Drops below altitude 10° 00:47:38 10° 113° (ESE) 2,953 7.6 -22.3°
Sets 00:50:34 0° 111° (ESE) 3,982 8.6 -21.7°
